Flag for India Weather past 2 weeks in Sivaganga, Tamil Nadu, India

82 °F

Partly cloudy.

Feels Like: 88 °F
Forecast: 78 / 88 °F
Wind: 7 mph from Northwest

Location: Tiruchchirapalli

Current Time: Oct 5, 2015 at 1:58:59 AM

Latest Report: Oct 5, 2015 at 12:40 AM

Visibility: 4 mi

Pressure: 29.86 "Hg

Humidity: 74%

Dew point: 73 °F

Location of SivagangaLocation

Historic Weather in Sivaganga — Graph


Sivaganga temperature yesterday

Maximum temperature yesterday: 93 °F (at 3:40 PM)
Minimum temperature yesterday: 79 °F (at 5:40 AM)
Average temperature yesterday: 85 °F

Past Weeks' High & Low Weather Summary

High102 °F (Sep 21, 3:40 PM)100% (Sep 27, 11:40 PM)29.95 "Hg (Sep 27, 11:40 PM)
Low72 °F (Sep 27, 11:40 PM)31% (Sep 21, 3:40 PM)29.62 "Hg (Sep 20, 2:40 PM)
Average86 °F67%29.77 "Hg
* Reported Sep 20 12:40 AM — Oct 4 11:40 PM, Sivaganga, Weather by CustomWeather, © 2015

Note: Actual official high and low records may vary slightly from our data, if they occured in-between our weather recording intervals... More about our weather records


Sivaganga weather history for previous 24 hours

Time TempWeatherWind HumidityBarometerVisibility
11:40 PM
Sun, Oct 4
82 °FPartly cloudy.2 mph74%29.86 "Hg4 mi
10:40 PM82 °FPartly cloudy.2 mph79%29.89 "Hg4 mi
9:40 PM82 °FPartly cloudy.2 mph79%29.86 "Hg4 mi
8:40 PM82 °FPartly cloudy.2 mph79%29.86 "Hg4 mi
7:40 PM88 °FPartly cloudy.2 mph70%29.83 "Hg4 mi
6:40 PM90 °FPartly cloudy.6 mph63%29.80 "Hg4 mi
5:40 PM91 °FThunderstorms. Broken clouds.8 mph59%29.77 "Hg4 mi
4:40 PM93 °FScattered clouds.6 mph56%29.74 "HgN/A
3:40 PM93 °FScattered clouds.7 mph56%29.74 "HgN/A
1:40 PM90 °FScattered clouds.9 mph59%29.80 "HgN/A
12:40 PM90 °FScattered clouds.9 mph59%29.83 "HgN/A
11:40 AM88 °FBroken clouds.12 mph62%29.86 "HgN/A
10:40 AM86 °FBroken clouds.9 mph66%29.89 "HgN/A
9:40 AM84 °FBroken clouds.9 mph70%29.92 "Hg5 mi
8:40 AM82 °FBroken clouds.9 mph74%29.89 "Hg4 mi
7:40 AM81 °FFog.6 mph79%29.89 "Hg3 mi
6:40 AM79 °FFog.7 mph84%29.86 "Hg3 mi
5:40 AM79 °FPassing clouds.7 mph84%29.83 "Hg4 mi
4:40 AM81 °FPassing clouds.3 mph79%29.83 "Hg4 mi
3:40 AM81 °FPassing clouds.6 mph79%29.83 "Hg4 mi
2:40 AM81 °FPartly cloudy.9 mph79%29.83 "Hg4 mi
1:40 AM82 °FPartly cloudy.9 mph79%29.83 "Hg4 mi
Weather by CustomWeather, © 2015

See weather overviewHow to use our weather pages